Date,TemperatureHighF,TemperatureAvgF,TemperatureLowF,DewpointHighF,DewpointAvgF,DewpointLowF,HumidityHigh,HumidityAvg,HumidityLow,PressureMaxIn,PressureMinIn,WindSpeedMaxMPH,WindSpeedAvgMPH,GustSpeedMaxMPH,PrecipitationSumIn
2013-1-1,48.4,41.0,34.3,47.8,37.5,25.2,99,88,66,29.99,29.84,8,2,8,0.33
2013-1-2,43.7,39.1,36.0,43.2,38.0,34.1,99,96,91,30.00,29.80,8,2,8,0.01
2013-1-3,47.7,36.1,25.5,38.4,34.3,21.2,99,93,64,30.18,29.94,8,2,8,0.01
2013-1-4,51.1,24.9,20.5,30.1,19.6,16.6,88,81,34,30.24,30.13,15,2,15,0.00
2013-1-5,43.2,26.3,19.8,30.0,18.9,14.9,82,74,56,30.25,30.13,12,2,12,0.00
2013-1-6,50.5,38.3,33.3,39.2,32.2,26.8,92,79,65,30.10,29.95,12,3,12,0.00
2013-1-7,64.4,30.2,25.0,32.7,23.8,19.4,88,78,27,30.27,30.08,8,2,8,0.00
2013-1-8,60.6,35.3,23.9,43.9,29.7,21.2,97,82,45,30.31,30.18,7,2,7,0.00
2013-1-9,52.9,41.5,31.3,48.9,40.6,31.0,99,97,85,30.35,30.23,5,1,5,0.00
2013-1-10,47.1,44.8,43.0,46.9,44.2,42.3,99,98,97,30.35,30.31,4,1,4,0.00
2013-1-11,58.3,52.7,48.9,56.2,51.9,48.7,99,97,89,30.20,30.04,8,2,8,0.14
2013-1-12,78.8,58.7,51.8,64.2,55.7,51.3,99,90,61,30.07,29.97,7,3,7,0.01
2013-1-13,69.3,61.5,52.0,57.8,53.3,50.0,97,76,58,30.00,29.93,21,5,23,0.01
2013-1-14,58.6,54.1,45.1,58.0,53.6,44.3,99,98,97,30.08,29.93,9,2,9,1.03
2013-1-15,55.2,49.1,45.3,54.4,48.7,44.5,99,98,97,30.03,27.75,9,2,9,0.63
2013-1-16,56.8,49.0,47.1,56.6,48.7,46.9,99,99,97,27.79,27.69,7,1,7,0.12
2013-1-17,51.3,36.6,31.5,51.0,36.1,31.2,99,98,97,30.08,29.73,16,4,16,1.71
2013-1-18,57.9,33.1,26.2,41.3,28.8,23.6,99,85,48,30.36,30.08,14,3,14,0.01
2013-1-19,63.0,32.0,23.0,41.9,27.3,21.1,96,85,43,30.29,30.07,5,2,5,0.00
2013-1-20,68.2,38.4,26.8,40.0,28.2,22.1,88,70,22,30.07,29.97,15,3,15,0.00
2013-1-21,59.9,36.0,25.3,32.2,22.6,11.2,92,64,22,30.00,29.86,22,4,22,0.00
2013-1-22,49.5,27.3,18.7,14.0,4.5,-5.3,55,39,21,30.08,29.91,23,4,23,0.00
2013-1-23,55.8,27.9,16.9,26.4,13.9,3.8,79,57,26,30.20,29.91,13,2,13,0.00
2013-1-24,43.2,35.3,20.8,30.0,22.7,9.4,66,60,54,30.22,29.84,32,7,32,0.00
2013-1-25,45.0,24.3,19.6,43.3,11.5,6.0,96,58,45,30.23,29.89,8,2,8,0.04
2013-1-26,33.3,32.6,32.2,32.8,32.3,31.9,99,99,97,29.99,29.95,2,0,2,0.00
2013-1-27,83.3,52.5,37.9,48.7,42.6,36.7,99,77,22,30.12,29.95,0,0,0,21.90
2013-1-28,82.8,57.0,34.7,53.1,45.7,33.7,99,71,34,30.21,30.01,12,2,12,8.15
2013-1-29,73.2,52.1,37.9,56.7,47.3,37.7,99,86,48,30.10,29.83,12,3,12,0.06
2013-1-30,66.0,57.0,42.6,61.7,55.7,42.4,99,96,84,29.82,29.38,16,6,16,1.58
2013-1-31,50.4,38.7,29.3,41.9,20.7,15.6,96,50,29,29.86,29.44,29,8,29,0.01
2013-2-1,48.7,30.1,18.3,30.3,12.5,0.6,85,50,21,30.12,29.76,29,6,29,0.00
2013-2-2,42.8,24.4,17.4,32.1,14.0,7.9,78,65,45,30.12,29.93,10,2,10,0.00
2013-2-3,50.4,37.3,28.9,32.4,24.4,20.4,82,61,34,29.86,29.74,19,8,19,0.01
2013-2-4,56.3,34.3,23.9,31.3,25.6,14.9,77,71,32,29.94,29.79,8,2,8,0.00
2013-2-5,67.6,41.8,28.6,41.2,29.8,24.7,86,67,24,29.89,29.76,22,4,22,0.00
2013-2-6,70.0,42.9,31.1,36.1,28.6,21.7,91,63,17,30.06,29.86,16,3,16,0.00
2013-2-7,46.8,40.7,33.3,42.0,35.4,25.9,99,82,56,30.07,29.83,7,1,7,0.19
2013-2-8,60.8,42.7,32.2,51.8,38.9,27.1,99,88,50,29.99,29.77,24,4,24,0.01
2013-2-9,70.3,38.5,25.7,28.9,23.0,15.4,84,59,15,30.14,29.99,16,3,16,0.00
2013-2-10,57.6,41.1,31.1,37.3,26.2,15.7,79,60,22,30.17,30.01,18,3,18,0.00
2013-2-28,73.9,58.7,46.4,73.3,56.8,46.1,99,94,62,30.53,30.18,1,0,1,22.69
2013-3-1,79.5,61.7,50.2,63.7,57.1,49.9,99,87,51,30.58,30.47,0,0,0,16.58
2013-3-2,83.5,59.2,48.6,64.1,55.0,48.3,99,89,49,30.53,30.46,0,0,0,18.64
2013-3-6,29.8,29.7,29.5,19.9,19.6,19.2,66,66,65,30.24,30.23,24,19,24,164.20
2013-3-7,52.2,34.9,27.1,33.2,26.5,21.9,86,73,45,30.50,30.39,13,5,13,0.00
2013-3-8,63.7,35.4,21.0,31.6,22.4,19.0,95,67,21,30.52,30.44,14,3,14,0.00
2013-3-9,72.9,43.3,24.3,35.4,25.3,18.7,80,56,16,30.52,30.43,10,2,10,0.00
2013-3-10,70.0,51.3,36.1,36.5,32.5,28.6,84,54,22,30.47,30.36,12,3,12,0.00
2013-3-11,55.2,51.6,48.0,52.2,47.8,35.7,99,88,57,30.39,30.08,17,4,17,0.70
2013-3-12,64.6,47.5,32.4,49.2,36.8,26.4,99,69,38,30.29,30.02,16,4,16,0.13
2013-3-13,53.8,37.1,27.9,32.1,22.8,14.0,97,61,25,30.41,30.25,32,7,32,0.00
2013-3-14,57.0,33.5,23.0,20.6,14.3,7.6,66,48,21,30.50,30.38,19,5,19,0.00
2013-3-15,78.4,47.5,25.9,43.1,29.9,16.4,88,56,18,30.38,30.16,27,4,27,0.00
2013-3-16,84.2,63.6,49.6,47.0,43.4,38.3,76,50,22,30.16,30.03,26,7,26,0.00
2013-3-17,79.3,60.9,51.4,49.4,45.8,36.1,84,61,23,30.21,30.09,15,4,15,0.00
2013-3-18,51.4,45.6,42.1,47.1,43.3,41.0,99,92,83,30.26,30.20,15,3,15,0.00
2013-3-19,66.0,46.9,37.6,43.2,29.9,13.3,99,60,19,30.31,30.10,22,5,22,0.00
2013-3-20,64.9,50.2,32.2,21.1,14.7,1.8,48,25,18,30.32,30.09,22,5,22,0.00
2013-3-21,49.3,31.1,21.2,28.1,13.6,6.8,85,51,25,30.13,30.01,15,6,15,0.02
2013-3-22,53.1,34.6,20.8,27.4,17.6,13.1,77,54,25,30.22,30.13,11,2,11,0.00
2013-3-23,65.7,44.9,34.9,45.7,37.4,24.3,99,77,47,30.20,30.10,9,2,9,0.04
2013-3-24,49.8,44.0,38.5,46.2,42.3,38.2,99,94,78,30.12,29.72,8,3,8,0.46
2013-3-25,39.2,34.4,30.0,37.9,24.5,20.0,99,68,54,30.14,29.76,18,8,18,0.01
2013-3-26,46.2,35.3,27.3,29.1,23.9,18.5,80,63,45,30.43,30.15,23,7,23,0.00
2013-3-27,56.7,36.6,28.0,28.8,23.6,20.2,81,61,30,30.43,30.35,18,5,18,0.00
2013-3-28,63.3,38.1,24.8,25.2,19.9,12.0,85,55,19,30.50,30.39,21,5,21,0.00
2013-3-29,56.8,38.1,25.0,40.6,28.0,17.9,99,71,25,30.51,30.43,15,3,15,0.05
2013-3-30,51.4,40.1,38.3,49.9,39.7,38.0,99,99,92,30.43,30.38,7,1,7,0.13
2013-4-4,45.9,39.0,34.9,37.9,34.0,23.7,99,85,42,30.42,30.18,7,2,7,0.50
2013-4-5,70.3,47.4,37.0,46.6,40.1,36.3,99,80,32,30.33,30.17,13,4,13,0.00
2013-4-6,74.7,50.7,34.2,42.2,35.1,30.1,94,63,21,30.45,30.33,15,4,15,0.00
2013-4-7,78.6,56.0,38.8,45.7,40.7,35.0,90,60,30,30.46,30.32,12,4,12,0.00
2013-4-8,84.0,61.2,43.5,52.8,48.2,42.8,98,67,32,30.41,30.28,12,4,12,0.00
2013-4-9,88.7,65.5,47.5,57.5,53.0,47.2,99,69,34,30.46,30.31,8,3,8,0.00
2013-4-10,96.4,76.8,48.9,61.8,56.2,48.6,99,54,27,30.36,30.18,15,4,15,0.00
2013-4-11,78.6,63.1,53.4,62.8,59.3,50.9,99,90,38,30.21,29.93,20,3,20,0.97
2013-4-12,80.4,62.3,47.5,60.7,48.1,29.3,99,67,17,30.14,29.87,34,5,34,0.40
2013-4-13,83.3,57.5,39.2,45.1,36.9,26.9,98,56,14,30.31,30.14,17,4,17,0.00
2013-4-14,46.0,44.8,43.9,38.2,37.6,37.1,79,76,72,30.32,30.30,3,1,3,0.00
2013-6-10,82.6,81.7,79.9,71.2,69.3,64.7,74,66,55,30.22,30.21,8,5,8,100.50